DW4669 Weather Reports


Display with metric or nautical units.
time (UTC)temp
F
wind
direction
speed
MPH
gust
MPH
rain 1hr
in
rain 24hr
in
rain mn
in
humidity
%
barometer
mb
20260905004544 67 0 0.0 1.0 0.00 0.30 0.30 90 1011.2
20260905004017 67 0 0.0 0.0 0.00 0.30 0.30 89 1011.3
20260905003521 67 0 0.0 0.0 0.00 0.30 0.30 89 1011.3
20260905003036 68 0 0.0 0.0 0.00 0.30 0.30 88 1011.2
20260905002516 68 0 0.0 0.0 0.00 0.30 0.30 87 1011.2
20260905002019 68 0 0.0 0.0 0.00 0.30 0.30 86 1011.0
20260905001548 69 0 0.0 0.0 0.00 0.30 0.30 86 1010.9
20260905001021 69 0 0.0 0.0 0.00 0.30 0.30 85 1010.8
20260905000516 69 0 0.0 0.0 0.00 0.30 0.30 84 1010.9
20260905000034 70 0 0.0 0.0 0.00 0.30 0.30 83 1011.0
20260904235517 70 0 0.0 0.0 0.00 0.30 0.30 82 1011.0
20260904235017 71 0 0.0 0.0 0.00 0.30 0.30 81 1011.0
20260904234539 71 0 0.0 0.0 0.00 0.30 0.30 80 1010.9
20260904234017 72 0 0.0 0.0 0.00 0.30 0.30 79 1010.9
20260904233518 72 0 0.0 0.0 0.00 0.30 0.30 78 1010.9
20260904233042 73 0 0.0 0.0 0.00 0.30 0.30 76 1010.9
20260904232520 74 0 0.0 0.0 0.00 0.30 0.30 74 1010.9
20260904232021 74 0 0.0 1.0 0.00 0.30 0.30 73 1010.8
20260904231545 75 0 0.0 4.0 0.00 0.30 0.30 72 1010.9
20260904231016 75 0 0.0 4.0 0.00 0.30 0.30 70 1010.8
20260904230518 76 286 0.0 4.0 0.00 0.30 0.30 69 1010.8
20260904230034 76 0 0.0 2.0 0.00 0.30 0.30 69 1010.8
20260904225518 76 0 0.0 2.0 0.00 0.30 0.30 69 1010.8
20260904225018 77 0 0.0 3.0 0.00 0.30 0.30 69 1010.9
20260904224545 77 281 0.0 3.0 0.00 0.30 0.30 68 1010.9
20260904224018 78 0 0.0 3.0 0.00 0.30 0.30 67 1010.8
20260904223521 78 0 0.0 3.0 0.00 0.30 0.30 68 1010.7
20260904223050 78 0 0.0 4.0 0.00 0.30 0.30 67 1010.7
20260904222518 78 0 0.0 4.0 0.00 0.30 0.30 65 1010.7
20260904222016 78 348 1.0 4.0 0.00 0.30 0.30 64 1010.8
20260904221537 79 0 0.0 6.0 0.00 0.30 0.30 65 1010.7
20260904221016 79 0 0.0 6.0 0.00 0.30 0.30 64 1010.8
20260904220516 80 234 1.0 7.0 0.00 0.30 0.30 61 1010.7
20260904220034 81 286 2.0 7.0 0.00 0.30 0.30 59 1010.6
20260904215517 81 281 1.0 5.0 0.00 0.30 0.30 62 1010.6
20260904215017 81 259 0.0 4.0 0.00 0.30 0.30 61 1010.7
20260904214533 81 294 1.0 5.0 0.00 0.30 0.30 64 1010.7
20260904214017 80 294 1.0 8.0 0.00 0.30 0.30 62 1010.7
20260904213525 80 251 0.0 8.0 0.00 0.30 0.30 61 1010.6
20260904213035 81 322 2.0 8.0 0.00 0.30 0.30 60 1010.4
20260904212516 81 50 1.0 8.0 0.00 0.30 0.30 62 1010.4
20260904212015 81 0 1.0 6.0 0.00 0.30 0.30 60 1010.4
20260904211539 81 230 1.0 8.0 0.00 0.30 0.30 62 1010.4
20260904211017 80 12 2.0 8.0 0.00 0.30 0.30 61 1010.4
20260904210518 80 324 1.0 5.0 0.00 0.30 0.30 64 1010.6
20260904210046 81 298 2.0 8.0 0.00 0.30 0.30 63 1010.6
20260904205518 81 326 3.0 9.0 0.00 0.30 0.30 64 1010.6
20260904205018 82 0 2.0 9.0 0.00 0.30 0.30 61 1010.6
20260904204538 82 0 1.0 8.0 0.00 0.30 0.30 62 1010.6
20260904204018 82 346 2.0 8.0 0.00 0.30 0.30 62 1010.7
20260904203516 82 0 1.0 10.0 0.00 0.30 0.30 63 1010.7
20260904203037 82 259 2.0 10.0 0.00 0.30 0.30 62 1010.7
20260904202518 81 331 4.0 10.0 0.00 0.30 0.30 62 1010.8
20260904202016 81 0 1.0 9.0 0.00 0.30 0.30 66 1010.9
20260904201536 81 253 1.0 5.0 0.00 0.30 0.30 66 1011.0
20260904201017 81 333 1.0 7.0 0.00 0.30 0.30 64 1010.9
20260904200520 81 0 0.0 10.0 0.00 0.30 0.30 62 1010.9
20260904200039 82 0 1.0 10.0 0.00 0.30 0.30 61 1010.9
20260904195517 82 275 2.0 10.0 0.00 0.30 0.30 65 1010.9
20260904195016 82 5 2.0 8.0 0.00 0.30 0.30 60 1010.8
20260904194536 82 0 1.0 6.0 0.00 0.30 0.30 60 1010.9
20260904194020 82 329 1.0 5.0 0.00 0.30 0.30 61 1010.9
20260904193519 81 336 1.0 5.0 0.00 0.30 0.30 60 1010.8
20260904193036 81 0 1.0 4.0 0.00 0.30 0.30 60 1010.8
20260904192517 82 0 0.0 8.0 0.00 0.30 0.30 63 1010.8
20260904192016 81 263 3.0 8.0 0.00 0.30 0.30 59 1010.8
20260904191536 81 0 1.0 6.0 0.00 0.30 0.30 64 1010.8
20260904191021 80 0 1.0 5.0 0.00 0.30 0.30 63 1011.0
20260904190518 80 0 0.0 5.0 0.00 0.30 0.30 65 1011.1
20260904190036 80 321 0.0 5.0 0.00 0.30 0.30 67 1011.2
20260904185516 81 313 1.0 7.0 0.00 0.30 0.30 62 1011.2
20260904185016 81 309 1.0 7.0 0.00 0.30 0.30 64 1011.3
20260904184537 82 319 2.0 8.0 0.00 0.30 0.30 61 1011.4
20260904184016 81 330 3.0 8.0 0.00 0.30 0.30 62 1011.4
20260904183518 81 0 1.0 9.0 0.00 0.30 0.30 66 1011.6
20260904183033 81 333 1.0 9.0 0.00 0.30 0.30 61 1011.6
20260904182519 82 317 2.0 8.0 0.00 0.30 0.30 63 1011.6
20260904182024 82 348 1.0 8.0 0.00 0.30 0.30 62 1011.5
20260904181534 82 0 3.0 8.0 0.00 0.30 0.30 61 1011.4
20260904181017 81 296 3.0 8.0 0.00 0.30 0.30 61 1011.5
20260904180518 80 0 1.0 5.0 0.00 0.30 0.30 65 1011.5
20260904180037 80 0 1.0 7.0 0.00 0.30 0.30 66 1011.4
20260904175522 79 313 1.0 7.0 0.00 0.30 0.30 65 1011.6
20260904175019 80 258 2.0 5.0 0.00 0.30 0.30 64 1011.5
20260904174533 80 333 1.0 11.0 0.00 0.30 0.30 64 1011.4
20260904174017 81 0 2.0 11.0 0.00 0.30 0.30 66 1011.5
20260904173517 81 349 4.0 11.0 0.00 0.30 0.30 63 1011.5
20260904173048 81 321 1.0 9.0 0.00 0.30 0.30 64 1011.4
20260904172521 81 317 2.0 10.0 0.00 0.30 0.30 65 1011.5
20260904172019 81 298 4.0 10.0 0.00 0.30 0.30 65 1011.6
20260904171536 80 315 2.0 14.0 0.00 0.30 0.30 64 1011.6
20260904171018 80 340 4.0 14.0 0.00 0.30 0.30 64 1011.6
20260904170518 80 334 3.0 8.0 0.00 0.30 0.30 65 1011.5
20260904170035 80 303 1.0 6.0 0.00 0.30 0.30 66 1011.6
20260904165522 80 0 2.0 10.0 0.00 0.30 0.30 67 1011.7
20260904165016 80 239 2.0 10.0 0.00 0.30 0.30 66 1011.7
20260904164536 81 0 2.0 10.0 0.00 0.30 0.30 71 1011.7
20260904164018 80 0 1.0 8.0 0.00 0.30 0.30 71 1011.6
20260904163519 80 324 2.0 10.0 0.00 0.30 0.30 67 1011.8
20260904163045 79 0 3.0 10.0 0.00 0.30 0.30 69 1011.8
20260904162518 79 278 3.0 9.0 0.00 0.30 0.30 69 1011.9
20260904162015 78 22 5.0 9.0 0.00 0.30 0.30 70 1011.9
20260904161534 78 328 3.0 9.0 0.00 0.30 0.30 69 1011.9
20260904161016 79 304 3.0 10.0 0.00 0.30 0.30 68 1011.9
20260904160522 79 341 4.0 10.0 0.00 0.30 0.30 68 1011.8
20260904160035 79 316 3.0 10.0 0.00 0.30 0.30 67 1011.7
20260904155518 79 316 2.0 10.0 0.00 0.30 0.30 72 1011.9
20260904155015 79 311 3.0 10.0 0.00 0.30 0.30 72 1012.2
20260904154536 78 0 1.0 6.0 0.00 0.30 0.30 73 1012.3
20260904154019 78 0 2.0 6.0 0.00 0.30 0.30 74 1012.3
20260904153520 78 319 2.0 6.0 0.00 0.30 0.30 74 1012.3
20260904153038 78 339 1.0 6.0 0.00 0.30 0.30 74 1012.3
20260904152518 78 333 1.0 6.0 0.00 0.30 0.30 76 1012.4
20260904152022 78 360 0.0 5.0 0.00 0.30 0.30 75 1012.4
20260904151537 78 0 0.0 4.0 0.00 0.30 0.30 76 1012.4
20260904151016 78 352 0.0 6.0 0.00 0.30 0.30 77 1012.4
20260904150516 77 0 0.0 7.0 0.00 0.30 0.30 78 1012.7
20260904150036 77 324 2.0 7.0 0.00 0.30 0.30 78 1012.7
20260904145518 77 0 0.0 4.0 0.00 0.30 0.30 78 1012.5
20260904145018 77 0 0.0 9.0 0.00 0.30 0.30 78 1012.4
20260904144534 78 0 2.0 9.0 0.00 0.30 0.30 75 1012.4
20260904144023 78 345 1.0 8.0 0.00 0.30 0.30 78 1012.4
20260904143519 77 313 2.0 8.0 0.00 0.30 0.30 78 1012.4
20260904143054 78 330 2.0 9.0 0.00 0.30 0.30 76 1012.4
20260904142516 78 256 2.0 9.0 0.00 0.30 0.30 78 1012.6
20260904142018 78 319 0.0 4.0 0.00 0.30 0.30 79 1012.5
20260904141536 77 0 0.0 4.0 0.00 0.30 0.30 81 1012.6
20260904141016 77 0 0.0 5.0 0.00 0.30 0.30 82 1012.5
20260904140520 76 0 1.0 8.0 0.00 0.30 0.30 82 1012.4
20260904140038 76 0 0.0 8.0 0.00 0.30 0.30 81 1012.5
20260904135522 76 308 2.0 8.0 0.00 0.30 0.30 82 1012.5
20260904135019 76 338 0.0 4.0 0.00 0.30 0.30 83 1012.5
20260904134536 75 287 0.0 4.0 0.00 0.30 0.30 83 1012.5
20260904134019 75 269 0.0 5.0 0.00 0.30 0.30 84 1012.3
20260904133516 74 0 0.0 10.0 0.00 0.30 0.30 87 1012.4
20260904133036 74 257 0.0 10.0 0.00 0.30 0.30 86 1012.5
20260904132516 73 348 2.0 10.0 0.00 0.30 0.30 88 1012.7
20260904132017 73 0 1.0 5.0 0.00 0.30 0.30 90 1012.6
20260904131535 72 0 0.0 3.0 0.00 0.30 0.30 93 1012.5
20260904131018 72 0 0.0 3.0 0.00 0.30 0.30 94 1012.4
20260904130518 72 0 0.0 3.0 0.00 0.30 0.30 95 1012.4
20260904130034 71 0 0.0 3.0 0.00 0.30 0.30 96 1012.4
20260904125520 71 312 0.0 3.0 0.00 0.30 0.30 96 1012.5
20260904125016 70 296 0.0 8.0 0.00 0.30 0.30 97 1012.7
20260904124534 70 0 1.0 8.0 0.00 0.30 0.30 97 1012.5
20260904124017 70 0 0.0 5.0 0.00 0.30 0.30 98 1012.5
20260904123523 69 322 0.0 5.0 0.00 0.30 0.30 98 1012.7
20260904123035 69 0 0.0 4.0 0.00 0.30 0.30 98 1012.7
20260904122520 69 0 0.0 4.0 0.00 0.30 0.30 98 1012.6
20260904122022 69 0 0.0 3.0 0.00 0.30 0.30 98 1012.6
20260904121626 69 0 0.0 3.0 0.00 0.30 0.30 98 1012.3
20260904121016 69 0 0.0 3.0 0.00 0.30 0.30 98 1012.3
20260904120518 68 0 0.0 1.0 0.00 0.30 0.30 98 1012.2
20260904120037 68 0 0.0 1.0 0.00 0.30 0.30 98 1012.1
20260904115520 68 0 0.0 1.0 0.00 0.30 0.30 98 1012.2
20260904115016 68 0 0.0 4.0 0.00 0.30 0.30 98 1012.1
20260904114538 68 0 0.0 4.0 0.00 0.30 0.30 98 1012.1
20260904114018 68 0 0.0 0.0 0.00 0.30 0.30 98 1012.1
20260904113518 68 0 0.0 0.0 0.00 0.30 0.30 98 1012.1
20260904113035 68 0 0.0 0.0 0.00 0.30 0.30 98 1012.1
20260904112517 68 0 0.0 2.0 0.00 0.30 0.30 98 1012.0
20260904112016 68 0 0.0 2.0 0.00 0.30 0.30 98 1012.1
20260904111536 67 297 0.0 2.0 0.00 0.30 0.30 98 1011.9
20260904111019 67 0 0.0 0.0 0.00 0.30 0.30 98 1011.9
20260904110520 67 0 0.0 0.0 0.00 0.30 0.30 98 1011.8
20260904110040 67 0 0.0 0.0 0.00 0.30 0.30 98 1011.8
20260904105518 67 0 0.0 1.0 0.00 0.30 0.30 98 1011.7
20260904105016 67 0 0.0 1.0 0.00 0.30 0.30 98 1011.8
20260904104540 68 0 0.0 0.0 0.00 0.30 0.30 98 1011.7
20260904104016 68 0 0.0 0.0 0.00 0.30 0.30 98 1011.6
20260904103517 68 0 0.0 1.0 0.00 0.30 0.30 98 1011.6
20260904103034 68 0 0.0 3.0 0.00 0.30 0.30 98 1011.6
20260904102518 67 0 0.0 3.0 0.00 0.30 0.30 98 1011.4
20260904102017 67 0 0.0 2.0 0.00 0.30 0.30 98 1011.3
20260904101535 67 0 0.0 1.0 0.00 0.30 0.30 98 1011.5
20260904101017 67 0 0.0 0.0 0.00 0.30 0.30 98 1011.3
20260904100515 67 0 0.0 0.0 0.00 0.30 0.30 98 1011.4
20260904100037 67 0 0.0 0.0 0.00 0.30 0.30 97 1011.3
20260904095519 67 0 0.0 0.0 0.00 0.30 0.30 98 1011.1
20260904095017 67 0 0.0 0.0 0.00 0.30 0.30 97 1011.1
20260904094536 67 0 0.0 0.0 0.00 0.30 0.30 98 1011.0
20260904094016 67 0 0.0 0.0 0.00 0.30 0.30 97 1010.9
20260904093516 67 0 0.0 0.0 0.00 0.30 0.30 97 1010.8
20260904093035 67 0 0.0 0.0 0.00 0.30 0.30 98 1010.9
20260904092517 68 0 0.0 0.0 0.00 0.30 0.30 98 1010.9
20260904092017 68 0 0.0 1.0 0.00 0.30 0.30 98 1010.7
20260904091549 68 0 0.0 1.0 0.00 0.30 0.30 97 1010.8
20260904091017 68 0 0.0 1.0 0.00 0.30 0.30 98 1010.9
20260904090517 68 0 0.0 1.0 0.00 0.30 0.30 98 1010.9
20260904090037 68 0 0.0 1.0 0.00 0.30 0.30 98 1011.0
20260904085518 68 0 0.0 0.0 0.00 0.31 0.30 98 1011.1
20260904085020 68 0 0.0 0.0 0.00 0.31 0.30 98 1011.0
20260904084534 68 0 0.0 0.0 0.00 0.31 0.30 98 1011.0
20260904084018 68 0 0.0 0.0 0.00 0.31 0.30 98 1010.9
20260904083516 68 0 0.0 0.0 0.00 0.31 0.30 97 1010.7
20260904083040 69 0 0.0 1.0 0.00 0.31 0.30 98 1010.7
20260904082518 69 0 0.0 1.0 0.00 0.31 0.30 97 1010.7
20260904082016 69 0 0.0 1.0 0.00 0.31 0.30 97 1010.7
20260904081534 69 0 0.0 1.0 0.00 0.31 0.30 98 1010.7
20260904081017 69 0 0.0 1.0 0.00 0.31 0.30 98 1010.7
20260904080518 69 0 0.0 0.0 0.01 0.31 0.30 98 1010.6
20260904080039 69 0 0.0 0.0 0.01 0.31 0.30 98 1010.3
20260904075518 69 0 0.0 0.0 0.01 0.31 0.30 98 1010.3
20260904075020 69 0 0.0 0.0 0.02 0.31 0.30 98 1010.5
20260904074552 69 0 0.0 0.0 0.02 0.31 0.30 98 1010.3
20260904074018 69 0 0.0 0.0 0.03 0.31 0.30 97 1010.3
20260904073518 69 0 0.0 0.0 0.06 0.31 0.30 97 1010.3
20260904073035 69 0 0.0 0.0 0.12 0.31 0.30 97 1010.3
20260904072517 69 0 0.0 0.0 0.13 0.31 0.30 97 1010.2
20260904072017 69 0 0.0 1.0 0.14 0.31 0.30 97 1010.3
20260904071548 69 0 0.0 1.0 0.17 0.31 0.30 97 1010.4
20260904071022 70 0 0.0 0.0 0.26 0.31 0.30 97 1010.7
20260904070517 70 0 0.0 3.0 0.29 0.30 0.29 97 1010.9
20260904070038 70 0 0.0 5.0 0.29 0.30 0.29 97 1011.2
20260904065518 70 0 0.0 10.0 0.29 0.31 0.29 97 1011.2
20260904065018 71 294 2.0 11.0 0.28 0.30 0.28 97 1011.5
20260904064541 72 341 4.0 11.0 0.28 0.30 0.28 98 1011.7
20260904064016 72 302 2.0 7.0 0.26 0.28 0.26 98 1011.5
20260904063516 72 325 0.0 5.0 0.23 0.25 0.23 98 1011.5
20260904063046 72 0 0.0 3.0 0.18 0.20 0.18 98 1011.4
20260904062519 72 0 0.0 3.0 0.17 0.19 0.17 98 1011.5
20260904062017 72 0 0.0 2.0 0.16 0.18 0.16 98 1011.1
20260904061534 72 0 0.0 2.0 0.13 0.15 0.13 98 1011.2
20260904061021 72 0 0.0 0.0 0.02 0.04 0.02 98 1011.4
20260904060520 72 0 0.0 0.0 0.00 0.02 0.00 98 1011.1
20260904060036 72 0 0.0 0.0 0.00 0.02 0.00 98 1011.1
20260904055521 72 0 0.0 0.0 0.00 0.04 0.00 98 1011.2
20260904055019 72 0 0.0 0.0 0.00 0.04 0.00 98 1011.3
20260904054537 72 0 0.0 0.0 0.00 0.04 0.00 98 1011.2
20260904054018 72 0 0.0 0.0 0.00 0.04 0.00 98 1011.4
20260904053520 72 0 0.0 0.0 0.00 0.04 0.00 98 1011.3
20260904053042 72 0 0.0 0.0 0.00 0.04 0.00 98 1011.3
20260904052516 72 0 0.0 0.0 0.00 0.04 0.00 98 1011.4
20260904052016 72 0 0.0 0.0 0.00 0.04 0.00 98 1011.3
20260904051535 72 0 0.0 0.0 0.00 0.04 0.00 98 1011.5
20260904051017 72 0 0.0 0.0 0.00 0.04 0.00 98 1011.4
20260904050521 72 0 0.0 0.0 0.00 0.04 0.00 98 1011.6
20260904050035 72 0 0.0 0.0 0.00 0.04 0.00 98 1011.6
20260904045516 72 0 0.0 0.0 0.00 0.27 0.00 98 1011.5
20260904045018 72 0 0.0 0.0 0.00 0.27 0.00 98 1011.6
20260904044535 72 0 0.0 0.0 0.00 0.27 0.00 98 1011.6
20260904044018 72 0 0.0 1.0 0.00 0.27 0.00 98 1011.3
20260904043517 72 0 0.0 1.0 0.00 0.27 0.00 98 1011.6
20260904043035 72 0 0.0 0.0 0.00 0.27 0.00 98 1011.6
20260904042521 72 0 0.0 0.0 0.00 0.27 0.00 98 1011.5
20260904042020 72 0 0.0 0.0 0.00 0.27 0.00 98 1011.9
20260904041540 72 0 0.0 0.0 0.00 0.27 0.00 98 1011.9
20260904041016 72 0 0.0 0.0 0.00 0.27 0.00 97 1012.0
20260904040521 72 0 0.0 0.0 0.00 0.27 0.00 97 1012.0
20260904040033 72 0 0.0 0.0 0.00 0.27 0.00 97 1012.0
20260904035521 72 0 0.0 0.0 0.00 0.28 0.27 97 1012.0
20260904035022 72 0 0.0 0.0 0.00 0.28 0.27 97 1012.0
20260904034536 72 0 0.0 0.0 0.00 0.28 0.27 97 1012.0
20260904034017 72 0 0.0 0.0 0.00 0.28 0.27 97 1011.9
20260904033516 72 0 0.0 1.0 0.00 0.28 0.27 97 1011.7
20260904033036 72 0 0.0 1.0 0.00 0.28 0.27 97 1011.5
20260904032520 72 0 0.0 0.0 0.00 0.28 0.27 97 1011.7
20260904032016 72 0 0.0 0.0 0.00 0.28 0.27 97 1011.6
20260904031536 72 0 0.0 0.0 0.00 0.28 0.27 97 1011.7
20260904031019 72 0 0.0 0.0 0.00 0.28 0.27 97 1011.7
20260904030520 72 0 0.0 0.0 0.00 0.28 0.27 97 1011.8
20260904030103 72 0 0.0 0.0 0.00 0.28 0.27 97 1011.9
20260904025518 72 0 0.0 0.0 0.00 0.28 0.27 97 1012.0
20260904025018 73 0 0.0 0.0 0.00 0.28 0.27 97 1012.0
20260904024533 73 0 0.0 0.0 0.00 0.28 0.27 97 1012.1
20260904024019 73 0 0.0 0.0 0.00 0.28 0.27 97 1012.2
20260904023517 73 0 0.0 0.0 0.00 0.28 0.27 97 1012.4
20260904023038 73 0 0.0 0.0 0.00 0.28 0.27 97 1012.4
20260904022518 73 0 0.0 0.0 0.00 0.28 0.27 97 1012.5
20260904022017 73 0 0.0 0.0 0.00 0.28 0.27 97 1012.5
20260904021546 73 0 0.0 0.0 0.00 0.28 0.27 97 1012.5
20260904021018 73 0 0.0 0.0 0.00 0.28 0.27 97 1012.6
20260904020518 73 0 0.0 0.0 0.00 0.28 0.27 97 1012.7
20260904020040 73 0 0.0 0.0 0.00 0.28 0.27 97 1012.7
20260904015515 72 0 0.0 0.0 0.00 0.28 0.27 97 1012.6
20260904015016 72 0 0.0 0.0 0.00 0.28 0.27 97 1012.5
20260904014536 72 0 0.0 0.0 0.00 0.28 0.27 97 1012.7
20260904014018 72 0 0.0 0.0 0.00 0.28 0.27 97 1012.8
20260904013523 72 0 0.0 0.0 0.00 0.28 0.27 97 1012.8
20260904013039 72 0 0.0 0.0 0.00 0.28 0.27 96 1012.8
20260904012518 72 0 0.0 0.0 0.00 0.28 0.27 97 1012.7
20260904012016 72 0 0.0 0.0 0.00 0.28 0.27 96 1012.8
20260904011537 72 0 0.0 0.0 0.00 0.28 0.27 96 1012.8
20260904011017 72 0 0.0 0.0 0.00 0.28 0.27 96 1012.5
20260904010521 72 0 0.0 0.0 0.00 0.28 0.27 96 1012.3
20260904010039 72 0 0.0 0.0 0.00 0.28 0.27 96 1012.3
20260904005519 72 0 0.0 0.0 0.00 0.28 0.27 96 1012.3
20260904005019 72 0 0.0 0.0 0.00 0.28 0.27 96 1012.4